Time,TemperatureF,DewpointF,PressureIn,WindDirection,WindDirectionDegrees,WindSpeedMPH,WindSpeedGustMPH,Humidity,HourlyPrecipIn,Conditions,Clouds,dailyrainin,SoftwareType,DateUTC
2013-03-07 06:20:00,47.6,10.6,29.72,WSW,248,10.0,14.0,22,0.00,,---,0.00,VWS V14.01,2013-03-07 13:20:00,
2013-03-07 06:35:00,47.6,10.6,29.71,East,92,7.0,10.0,22,0.00,,---,0.00,VWS V14.01,2013-03-07 13:35:00,
2013-03-07 06:40:00,47.5,9.5,29.71,ESE,113,3.0,14.0,21,0.00,,---,0.00,VWS V14.01,2013-03-07 13:40:00,
2013-03-07 06:45:00,46.1,14.0,29.73,South,169,0.0,8.0,27,0.00,,---,0.00,VWS V14.01,2013-03-07 13:45:00,
2013-03-07 06:50:00,44.5,12.6,29.76,South,175,2.0,8.0,27,0.00,,---,0.00,VWS V14.01,2013-03-07 13:50:00,
2013-03-07 06:55:00,43.7,14.3,29.75,South,184,0.0,3.0,30,0.00,,---,0.00,VWS V14.01,2013-03-07 13:55:00,
2013-03-07 07:00:00,42.8,14.3,29.77,South,188,0.0,8.0,31,0.00,,---,0.00,VWS V14.01,2013-03-07 14:00:00,
2013-03-07 07:05:00,42.7,11.9,29.78,SSW,192,5.0,14.0,28,0.00,,---,0.00,VWS V14.01,2013-03-07 14:05:00,
2013-03-07 07:10:00,45.0,10.4,29.76,SW,221,5.0,13.0,24,0.00,,---,0.00,VWS V14.01,2013-03-07 14:10:00,
2013-03-07 07:15:00,44.8,14.5,29.77,SE,136,0.0,6.0,29,0.00,,---,0.00,VWS V14.01,2013-03-07 14:15:00,
2013-03-07 07:20:00,43.8,14.4,29.77,ESE,121,0.0,8.0,30,0.00,,---,0.00,VWS V14.01,2013-03-07 14:20:00,
2013-03-07 07:25:00,42.9,15.1,29.79,SE,134,1.0,5.0,32,0.00,,---,0.00,VWS V14.01,2013-03-07 14:25:00,
2013-03-07 07:30:00,42.5,15.4,29.79,ESE,122,5.0,14.0,33,0.00,,---,0.00,VWS V14.01,2013-03-07 14:30:00,
2013-03-07 07:35:00,42.9,15.8,29.80,SE,124,5.0,6.0,33,0.00,,---,0.00,VWS V14.01,2013-03-07 14:35:00,
2013-03-07 07:41:00,43.4,14.8,29.79,East,96,2.0,11.0,31,0.00,,---,0.00,VWS V14.01,2013-03-07 14:41:00,
2013-03-07 07:46:00,44.2,15.5,29.78,SE,136,4.0,10.0,31,0.00,,---,0.00,VWS V14.01,2013-03-07 14:46:00,
2013-03-07 07:51:00,44.5,15.8,29.78,SE,140,0.0,9.0,31,0.00,,---,0.00,VWS V14.01,2013-03-07 14:51:00,
2013-03-07 07:56:00,45.1,14.8,29.79,South,178,0.0,8.0,29,0.00,,---,0.00,VWS V14.01,2013-03-07 14:56:00,
2013-03-07 08:01:00,45.8,16.9,29.77,SSW,207,0.0,8.0,31,0.00,,---,0.00,VWS V14.01,2013-03-07 15:01:00,
2013-03-07 08:06:00,46.2,16.5,29.77,SSE,157,2.0,6.0,30,0.00,,---,0.00,VWS V14.01,2013-03-07 15:06:00,
2013-03-07 08:11:00,46.1,16.4,29.78,South,175,5.0,13.0,30,0.00,,---,0.00,VWS V14.01,2013-03-07 15:11:00,
2013-03-07 08:16:00,46.4,17.4,29.78,South,171,1.0,3.0,31,0.00,,---,0.00,VWS V14.01,2013-03-07 15:16:00,
2013-03-07 08:21:00,46.3,17.3,29.79,SE,136,0.0,9.0,31,0.00,,---,0.00,VWS V14.01,2013-03-07 15:21:00,
2013-03-07 08:26:00,46.7,16.9,29.78,SSE,164,4.0,5.0,30,0.00,,---,0.00,VWS V14.01,2013-03-07 15:26:00,
2013-03-07 08:31:00,47.3,17.5,29.78,SSW,193,1.0,8.0,30,0.00,,---,0.00,VWS V14.01,2013-03-07 15:31:00,
2013-03-07 08:36:00,48.1,11.1,29.77,SW,217,6.0,16.0,22,0.00,,---,0.00,VWS V14.01,2013-03-07 15:36:00,
2013-03-07 08:41:00,48.7,10.5,29.77,SSW,197,8.0,14.0,21,0.00,,---,0.00,VWS V14.01,2013-03-07 15:41:00,
2013-03-07 08:46:00,49.1,10.9,29.77,WSW,238,10.0,13.0,21,0.00,,---,0.00,VWS V14.01,2013-03-07 15:46:00,
2013-03-07 08:51:00,49.1,10.9,29.77,South,189,8.0,22.0,21,0.00,,---,0.00,VWS V14.01,2013-03-07 15:51:00,
2013-03-07 08:56:00,48.8,10.6,29.77,SSW,213,11.0,21.0,21,0.00,,---,0.00,VWS V14.01,2013-03-07 15:56:00,
2013-03-07 09:01:00,48.8,11.7,29.77,WSW,237,9.0,19.0,22,0.00,,---,0.00,VWS V14.01,2013-03-07 16:01:00,
2013-03-07 09:06:00,48.8,10.6,29.78,SW,219,13.0,20.0,21,0.00,,---,0.00,VWS V14.01,2013-03-07 16:06:00,
2013-03-07 09:11:00,49.0,11.8,29.76,SW,230,12.0,18.0,22,0.00,,---,0.00,VWS V14.01,2013-03-07 16:11:00,
2013-03-07 09:16:00,49.2,10.9,29.76,SW,233,8.0,18.0,21,0.00,,---,0.00,VWS V14.01,2013-03-07 16:16:00,
2013-03-07 09:21:00,49.4,12.2,29.76,South,183,7.0,20.0,22,0.00,,---,0.00,VWS V14.01,2013-03-07 16:21:00,
2013-03-07 09:26:00,49.5,11.2,29.76,SW,223,13.0,19.0,21,0.00,,---,0.00,VWS V14.01,2013-03-07 16:26:00,
2013-03-07 09:31:00,49.5,11.2,29.77,SW,229,14.0,18.0,21,0.00,,---,0.00,VWS V14.01,2013-03-07 16:31:00,
2013-03-07 09:36:00,49.4,11.1,29.77,South,187,7.0,16.0,21,0.00,,---,0.00,VWS V14.01,2013-03-07 16:36:00,
2013-03-07 09:41:00,49.7,11.4,29.77,SW,234,6.0,19.0,21,0.00,,---,0.00,VWS V14.01,2013-03-07 16:41:00,
2013-03-07 09:46:00,50.0,11.6,29.77,SW,230,9.0,14.0,21,0.00,,---,0.00,VWS V14.01,2013-03-07 16:46:00,
2013-03-07 09:51:00,49.8,11.4,29.77,WSW,244,10.0,21.0,21,0.00,,---,0.00,VWS V14.01,2013-03-07 16:51:00,
2013-03-07 09:56:00,50.1,11.7,29.77,South,188,9.0,16.0,21,0.00,,---,0.00,VWS V14.01,2013-03-07 16:56:00,
2013-03-07 10:01:00,50.2,12.8,29.77,SW,227,10.0,15.0,22,0.00,,---,0.00,VWS V14.01,2013-03-07 17:01:00,
2013-03-07 10:06:00,50.3,10.8,29.77,SW,229,13.0,19.0,20,0.00,,---,0.00,VWS V14.01,2013-03-07 17:06:00,
2013-03-07 10:11:00,50.0,10.5,29.77,SSW,205,8.0,21.0,20,0.00,,---,0.00,VWS V14.01,2013-03-07 17:11:00,
2013-03-07 10:16:00,50.4,10.9,29.77,SSW,210,14.0,21.0,20,0.00,,---,0.00,VWS V14.01,2013-03-07 17:16:00,
2013-03-07 10:21:00,50.3,10.8,29.77,SSW,210,13.0,27.0,20,0.00,,---,0.00,VWS V14.01,2013-03-07 17:21:00,
2013-03-07 10:26:00,50.0,10.5,29.78,SSW,196,5.0,15.0,20,0.00,,---,0.00,VWS V14.01,2013-03-07 17:26:00,
2013-03-07 10:31:00,50.3,10.8,29.77,WSW,246,9.0,20.0,20,0.00,,---,0.00,VWS V14.01,2013-03-07 17:31:00,
2013-03-07 10:36:00,50.6,11.0,29.78,SW,228,10.0,15.0,20,0.00,,---,0.00,VWS V14.01,2013-03-07 17:36:00,
2013-03-07 10:41:00,50.9,12.4,29.77,WSW,241,8.0,20.0,21,0.00,,---,0.00,VWS V14.01,2013-03-07 17:41:00,
2013-03-07 10:46:00,51.3,11.6,29.78,WNW,292,8.0,15.0,20,0.00,,---,0.00,VWS V14.01,2013-03-07 17:46:00,
2013-03-07 10:51:00,51.3,11.6,29.78,SSW,198,11.0,15.0,20,0.00,,---,0.00,VWS V14.01,2013-03-07 17:51:00,
2013-03-07 10:56:00,51.2,10.4,29.78,WSW,250,7.0,18.0,19,0.00,,---,0.00,VWS V14.01,2013-03-07 17:56:00,
2013-03-07 11:01:00,51.3,11.6,29.78,SW,225,6.0,7.0,20,0.00,,---,0.00,VWS V14.01,2013-03-07 18:01:00,
2013-03-07 11:06:00,51.9,10.9,29.76,WSW,246,7.0,16.0,19,0.00,,---,0.00,VWS V14.01,2013-03-07 18:06:00,
2013-03-07 11:11:00,52.1,11.1,29.76,WSW,256,7.0,7.0,19,0.00,,---,0.00,VWS V14.01,2013-03-07 18:11:00,
2013-03-07 11:16:00,51.7,9.6,29.76,WSW,240,6.0,20.0,18,0.00,,---,0.00,VWS V14.01,2013-03-07 18:16:00,
2013-03-07 11:21:00,52.3,11.3,29.76,SW,230,13.0,21.0,19,0.00,,---,0.00,VWS V14.01,2013-03-07 18:21:00,
2013-03-07 11:26:00,52.2,11.2,29.76,SW,214,5.0,5.0,19,0.00,,---,0.00,VWS V14.01,2013-03-07 18:26:00,
2013-03-07 11:31:00,52.4,12.5,29.76,SW,236,10.0,10.0,20,0.00,,---,0.00,VWS V14.01,2013-03-07 18:31:00,
2013-03-07 11:36:00,52.9,10.6,29.75,SW,229,10.0,10.0,18,0.00,,---,0.00,VWS V14.01,2013-03-07 18:36:00,
2013-03-07 11:41:00,53.2,10.8,29.75,WSW,240,7.0,11.0,18,0.00,,---,0.00,VWS V14.01,2013-03-07 18:41:00,
2013-03-07 11:46:00,53.1,9.4,29.74,SSW,198,7.0,7.0,17,0.00,,---,0.00,VWS V14.01,2013-03-07 18:46:00,
2013-03-07 11:51:00,53.2,9.5,29.74,SSW,209,7.0,8.0,17,0.00,,---,0.00,VWS V14.01,2013-03-07 18:51:00,
2013-03-07 11:56:00,53.3,10.9,29.74,SW,222,4.0,9.0,18,0.00,,---,0.00,VWS V14.01,2013-03-07 18:56:00,
2013-03-07 12:01:00,53.6,9.9,29.74,SW,225,8.0,9.0,17,0.00,,---,0.00,VWS V14.01,2013-03-07 19:01:00,
2013-03-07 12:06:00,53.5,12.3,29.74,SW,218,2.0,4.0,19,0.00,,---,0.00,VWS V14.01,2013-03-07 19:06:00,
2013-03-07 12:11:00,53.9,11.4,29.74,West,277,7.0,8.0,18,0.00,,---,0.00,VWS V14.01,2013-03-07 19:11:00,
2013-03-07 12:16:00,53.9,11.4,29.74,WSW,238,6.0,10.0,18,0.00,,---,0.00,VWS V14.01,2013-03-07 19:16:00,
2013-03-07 12:21:00,53.9,11.4,29.73,SW,223,4.0,7.0,18,0.00,,---,0.00,VWS V14.01,2013-03-07 19:21:00,
2013-03-07 12:27:00,54.1,11.6,29.73,SW,227,12.0,12.0,18,0.00,,---,0.00,VWS V14.01,2013-03-07 19:27:00,
2013-03-07 12:32:00,53.8,11.3,29.73,SSW,194,1.0,4.0,18,0.00,,---,0.00,VWS V14.01,2013-03-07 19:32:00,
2013-03-07 12:37:00,55.1,11.1,29.71,WSW,240,4.0,7.0,17,0.00,,---,0.00,VWS V14.01,2013-03-07 19:37:00,
2013-03-07 12:42:00,54.5,9.2,29.70,West,277,0.0,0.0,16,0.00,,---,0.00,VWS V14.01,2013-03-07 19:42:00,
2013-03-07 12:47:00,54.9,10.9,29.70,WSW,257,5.0,6.0,17,0.00,,---,0.00,VWS V14.01,2013-03-07 19:47:00,
2013-03-07 12:52:00,55.8,11.7,29.70,SW,234,0.0,0.0,17,0.00,,---,0.00,VWS V14.01,2013-03-07 19:52:00,
2013-03-07 12:57:00,56.3,12.1,29.69,SW,234,1.0,4.0,17,0.00,,---,0.00,VWS V14.01,2013-03-07 19:57:00,
2013-03-07 13:02:00,56.1,11.9,29.69,SW,233,2.0,2.0,17,0.00,,---,0.00,VWS V14.01,2013-03-07 20:02:00,
2013-03-07 13:07:00,56.4,12.1,29.69,SW,227,1.0,2.0,17,0.00,,---,0.00,VWS V14.01,2013-03-07 20:07:00,
2013-03-07 13:12:00,56.5,10.9,29.67,SW,219,0.0,1.0,16,0.00,,---,0.00,VWS V14.01,2013-03-07 20:12:00,
2013-03-07 13:17:00,56.4,12.1,29.68,SW,218,0.0,0.0,17,0.00,,---,0.00,VWS V14.01,2013-03-07 20:17:00,
2013-03-07 13:22:00,57.5,13.1,29.66,SSW,208,4.0,6.0,17,0.00,,---,0.00,VWS V14.01,2013-03-07 20:22:00,
2013-03-07 13:27:00,57.1,12.7,29.66,SSW,200,5.0,8.0,17,0.00,,---,0.00,VWS V14.01,2013-03-07 20:27:00,
2013-03-07 13:32:00,56.1,11.9,29.68,SSW,207,6.0,10.0,17,0.00,,---,0.00,VWS V14.01,2013-03-07 20:32:00,
2013-03-07 13:37:00,56.1,11.9,29.68,SSW,210,12.0,13.0,17,0.00,,---,0.00,VWS V14.01,2013-03-07 20:37:00,
2013-03-07 13:42:00,55.9,11.7,29.68,SSW,196,0.0,1.0,17,0.00,,---,0.00,VWS V14.01,2013-03-07 20:42:00,
2013-03-07 13:47:00,55.9,11.7,29.68,WSW,238,6.0,9.0,17,0.00,,---,0.00,VWS V14.01,2013-03-07 20:47:00,
2013-03-07 13:52:00,55.4,10.0,29.68,SSW,205,2.0,12.0,16,0.00,,---,0.00,VWS V14.01,2013-03-07 20:52:00,
2013-03-07 13:57:00,56.1,11.9,29.67,SSW,207,7.0,7.0,17,0.00,,---,0.00,VWS V14.01,2013-03-07 20:57:00,
2013-03-07 14:02:00,56.3,12.1,29.67,SW,231,4.0,4.0,17,0.00,,---,0.00,VWS V14.01,2013-03-07 21:02:00,
2013-03-07 14:07:00,56.5,12.2,29.67,SW,229,6.0,10.0,17,0.00,,---,0.00,VWS V14.01,2013-03-07 21:07:00,
2013-03-07 14:12:00,56.6,12.3,29.67,South,186,0.0,7.0,17,0.00,,---,0.00,VWS V14.01,2013-03-07 21:12:00,
2013-03-07 14:17:00,56.8,12.5,29.66,South,191,7.0,7.0,17,0.00,,---,0.00,VWS V14.01,2013-03-07 21:17:00,
2013-03-07 14:22:00,57.5,11.7,29.67,SSW,199,0.0,1.0,16,0.00,,---,0.00,VWS V14.01,2013-03-07 21:22:00,
2013-03-07 14:27:00,57.5,14.4,29.66,South,178,7.0,14.0,18,0.00,,---,0.00,VWS V14.01,2013-03-07 21:27:00,
2013-03-07 14:32:00,56.9,12.6,29.67,South,186,6.0,11.0,17,0.00,,---,0.00,VWS V14.01,2013-03-07 21:32:00,
2013-03-07 14:37:00,56.4,10.8,29.68,SSE,154,0.0,5.0,16,0.00,,---,0.00,VWS V14.01,2013-03-07 21:37:00,
2013-03-07 14:42:00,57.0,12.6,29.66,SW,223,6.0,11.0,17,0.00,,---,0.00,VWS V14.01,2013-03-07 21:42:00,
2013-03-07 14:47:00,57.5,11.7,29.66,South,188,0.0,9.0,16,0.00,,---,0.00,VWS V14.01,2013-03-07 21:47:00,
2013-03-07 14:52:00,57.8,13.3,29.66,SE,131,0.0,5.0,17,0.00,,---,0.00,VWS V14.01,2013-03-07 21:52:00,
2013-03-07 14:57:00,58.2,13.6,29.66,South,175,1.0,8.0,17,0.00,,---,0.00,VWS V14.01,2013-03-07 21:57:00,
2013-03-07 15:02:00,57.9,13.4,29.66,SSW,202,5.0,8.0,17,0.00,,---,0.00,VWS V14.01,2013-03-07 22:02:00,
2013-03-07 15:07:00,57.3,12.9,29.66,South,188,5.0,11.0,17,0.00,,---,0.00,VWS V14.01,2013-03-07 22:07:00,
2013-03-07 15:12:00,57.1,12.7,29.66,South,187,5.0,12.0,17,0.00,,---,0.00,VWS V14.01,2013-03-07 22:12:00,
2013-03-07 15:17:00,57.2,12.8,29.66,SE,134,1.0,4.0,17,0.00,,---,0.00,VWS V14.01,2013-03-07 22:17:00,
2013-03-07 15:22:00,57.2,12.8,29.65,South,183,9.0,14.0,17,0.00,,---,0.00,VWS V14.01,2013-03-07 22:22:00,
2013-03-07 15:27:00,57.1,12.7,29.65,South,189,9.0,14.0,17,0.00,,---,0.00,VWS V14.01,2013-03-07 22:27:00,
2013-03-07 15:32:00,57.4,15.5,29.65,SSW,202,1.0,3.0,19,0.00,,---,0.00,VWS V14.01,2013-03-07 22:32:00,
2013-03-07 15:37:00,58.1,13.5,29.65,SSW,196,1.0,6.0,17,0.00,,---,0.00,VWS V14.01,2013-03-07 22:37:00,
2013-03-07 15:42:00,58.2,13.6,29.65,SSW,210,1.0,4.0,17,0.00,,---,0.00,VWS V14.01,2013-03-07 22:42:00,
2013-03-07 15:47:00,58.3,13.7,29.65,SE,140,0.0,1.0,17,0.00,,---,0.00,VWS V14.01,2013-03-07 22:47:00,
2013-03-07 15:52:00,58.2,13.6,29.65,SE,145,0.0,1.0,17,0.00,,---,0.00,VWS V14.01,2013-03-07 22:52:00,
2013-03-07 15:57:00,58.3,13.7,29.65,SSE,159,0.0,3.0,17,0.00,,---,0.00,VWS V14.01,2013-03-07 22:57:00,
2013-03-07 16:02:00,58.5,16.4,29.65,South,186,0.0,1.0,19,0.00,,---,0.00,VWS V14.01,2013-03-07 23:02:00,
2013-03-07 16:07:00,58.5,16.4,29.62,ESE,105,6.0,6.0,19,0.00,,---,0.00,VWS V14.01,2013-03-07 23:07:00,
2013-03-07 16:12:00,57.6,14.4,29.63,SSW,212,7.0,9.0,18,0.00,,---,0.00,VWS V14.01,2013-03-07 23:12:00,
2013-03-07 16:17:00,57.1,12.7,29.64,South,181,8.0,9.0,17,0.00,,---,0.00,VWS V14.01,2013-03-07 23:17:00,
2013-03-07 16:22:00,57.3,12.9,29.64,SSW,210,4.0,11.0,17,0.00,,---,0.00,VWS V14.01,2013-03-07 23:22:00,
2013-03-07 16:27:00,57.5,13.1,29.62,SE,134,0.0,1.0,17,0.00,,---,0.00,VWS V14.01,2013-03-07 23:27:00,
2013-03-07 16:32:00,57.8,13.3,29.62,SSW,194,0.0,6.0,17,0.00,,---,0.00,VWS V14.01,2013-03-07 23:32:00,
2013-03-07 16:37:00,57.6,11.8,29.62,SE,140,3.0,3.0,16,0.00,,---,0.00,VWS V14.01,2013-03-07 23:37:00,
2013-03-07 16:42:00,57.1,14.0,29.64,SE,140,1.0,11.0,18,0.00,,---,0.00,VWS V14.01,2013-03-07 23:42:00,
2013-03-07 16:47:00,57.0,12.6,29.64,SSW,211,0.0,8.0,17,0.00,,---,0.00,VWS V14.01,2013-03-07 23:47:00,
2013-03-07 16:52:00,57.1,12.7,29.64,South,188,8.0,9.0,17,0.00,,---,0.00,VWS V14.01,2013-03-07 23:52:00,
2013-03-07 16:57:00,57.1,15.2,29.64,SSW,194,0.0,1.0,19,0.00,,---,0.00,VWS V14.01,2013-03-07 23:57:00,
2013-03-07 17:02:00,57.4,14.3,29.64,South,188,0.0,0.0,18,0.00,,---,0.00,VWS V14.01,2013-03-08 00:02:00,
2013-03-07 17:08:00,57.2,12.8,29.64,South,186,8.0,10.0,17,0.00,,---,0.00,VWS V14.01,2013-03-08 00:08:00,
2013-03-07 17:13:00,56.5,12.2,29.64,SSW,192,1.0,4.0,17,0.00,,---,0.00,VWS V14.01,2013-03-08 00:13:00,
2013-03-07 17:18:00,56.4,12.1,29.64,SSW,192,2.0,4.0,17,0.00,,---,0.00,VWS V14.01,2013-03-08 00:18:00,
2013-03-07 17:23:00,56.4,13.4,29.64,South,190,0.0,8.0,18,0.00,,---,0.00,VWS V14.01,2013-03-08 00:23:00,
2013-03-07 17:28:00,56.2,14.5,29.64,South,190,5.0,5.0,19,0.00,,---,0.00,VWS V14.01,2013-03-08 00:28:00,
2013-03-07 17:33:00,55.8,15.4,29.65,SSW,192,6.0,7.0,20,0.00,,---,0.00,VWS V14.01,2013-03-08 00:33:00,
2013-03-07 17:38:00,54.8,13.4,29.66,SSW,194,1.0,4.0,19,0.00,,---,0.00,VWS V14.01,2013-03-08 00:38:00,
2013-03-07 17:43:00,53.8,17.9,29.66,SSW,192,0.0,7.0,24,0.00,,---,0.00,VWS V14.01,2013-03-08 00:43:00,
2013-03-07 17:48:00,52.8,18.0,29.68,SSW,192,2.0,2.0,25,0.00,,---,0.00,VWS V14.01,2013-03-08 00:48:00,
2013-03-07 17:53:00,51.7,15.1,29.69,South,182,5.0,11.0,23,0.00,,---,0.00,VWS V14.01,2013-03-08 00:53:00,
2013-03-07 17:58:00,51.2,15.7,29.71,South,188,1.0,6.0,24,0.00,,---,0.00,VWS V14.01,2013-03-08 00:58:00,
2013-03-07 18:03:00,50.5,16.9,29.70,South,186,1.0,4.0,26,0.00,,---,0.00,VWS V14.01,2013-03-08 01:03:00,
2013-03-07 18:08:00,50.0,16.5,29.76,South,191,3.0,7.0,26,0.00,,---,0.00,VWS V14.01,2013-03-08 01:08:00,
2013-03-07 18:13:00,49.3,16.8,29.76,South,190,1.0,5.0,27,0.00,,---,0.00,VWS V14.01,2013-03-08 01:13:00,
2013-03-07 18:18:00,48.2,18.2,29.78,South,190,4.0,4.0,30,0.00,,---,0.00,VWS V14.01,2013-03-08 01:18:00,
2013-03-07 18:23:00,46.8,17.8,29.78,SSW,194,3.0,7.0,31,0.00,,---,0.00,VWS V14.01,2013-03-08 01:23:00,
2013-03-07 18:28:00,46.1,17.9,29.80,SSW,194,0.0,5.0,32,0.00,,---,0.00,VWS V14.01,2013-03-08 01:28:00,
2013-03-07 18:33:00,46.0,19.2,29.80,SSW,196,5.0,7.0,34,0.00,,---,0.00,VWS V14.01,2013-03-08 01:33:00,
2013-03-07 18:38:00,44.8,18.2,29.80,SSW,206,8.0,8.0,34,0.00,,---,0.00,VWS V14.01,2013-03-08 01:38:00,
2013-03-07 18:43:00,42.4,19.8,29.82,SSW,208,1.0,4.0,40,0.00,,---,0.00,VWS V14.01,2013-03-08 01:43:00,
2013-03-07 18:48:00,40.7,19.4,29.84,SSW,208,0.0,1.0,42,0.00,,---,0.00,VWS V14.01,2013-03-08 01:48:00,
2013-03-07 18:53:00,40.4,18.6,29.86,SSW,207,4.0,6.0,41,0.00,,---,0.00,VWS V14.01,2013-03-08 01:53:00,
2013-03-07 18:58:00,41.4,17.7,29.85,SSW,205,4.0,7.0,38,0.00,,---,0.00,VWS V14.01,2013-03-08 01:58:00,
2013-03-07 19:03:00,42.7,17.0,29.83,SSW,211,5.0,8.0,35,0.00,,---,0.00,VWS V14.01,2013-03-08 02:03:00,
2013-03-07 19:08:00,43.3,17.5,29.82,SSW,211,4.0,6.0,35,0.00,,---,0.00,VWS V14.01,2013-03-08 02:08:00,
2013-03-07 19:13:00,43.0,17.9,29.82,SSW,211,0.0,3.0,36,0.00,,---,0.00,VWS V14.01,2013-03-08 02:13:00,
2013-03-07 19:18:00,43.0,16.6,29.82,SSW,211,5.0,6.0,34,0.00,,---,0.00,VWS V14.01,2013-03-08 02:18:00,
2013-03-07 19:23:00,44.3,16.3,29.80,SSW,211,4.0,5.0,32,0.00,,---,0.00,VWS V14.01,2013-03-08 02:23:00,
2013-03-07 19:28:00,42.9,19.1,29.82,SSW,211,1.0,1.0,38,0.00,,---,0.00,VWS V14.01,2013-03-08 02:28:00,
2013-03-07 19:33:00,41.6,19.1,29.82,SSW,211,0.0,1.0,40,0.00,,---,0.00,VWS V14.01,2013-03-08 02:33:00,
2013-03-07 19:38:00,40.8,19.5,29.84,SSW,211,1.0,2.0,42,0.00,,---,0.00,VWS V14.01,2013-03-08 02:38:00,
2013-03-07 19:43:00,40.2,19.0,29.84,SSW,211,1.0,2.0,42,0.00,,---,0.00,VWS V14.01,2013-03-08 02:43:00,
2013-03-07 19:48:00,39.8,18.0,29.84,SSW,211,0.0,2.0,41,0.00,,---,0.00,VWS V14.01,2013-03-08 02:48:00,
2013-03-07 19:53:00,40.1,17.7,29.84,SSW,211,0.0,0.0,40,0.00,,---,0.00,VWS V14.01,2013-03-08 02:53:00,
2013-03-07 19:58:00,40.0,18.8,29.84,SSW,211,1.0,2.0,42,0.00,,---,0.00,VWS V14.01,2013-03-08 02:58:00,
2013-03-07 20:03:00,40.3,17.3,29.83,SSW,211,0.0,1.0,39,0.00,,---,0.00,VWS V14.01,2013-03-08 03:03:00,
2013-03-07 20:08:00,41.0,16.7,29.80,SSW,211,0.0,1.0,37,0.00,,---,0.00,VWS V14.01,2013-03-08 03:08:00,
2013-03-07 20:13:00,41.0,18.0,29.81,SSW,211,0.0,4.0,39,0.00,,---,0.00,VWS V14.01,2013-03-08 03:13:00,
2013-03-07 20:18:00,40.8,17.2,29.80,SSW,211,0.0,2.0,38,0.00,,---,0.00,VWS V14.01,2013-03-08 03:18:00,
2013-03-07 20:23:00,40.6,17.0,29.81,SSW,211,0.0,0.0,38,0.00,,---,0.00,VWS V14.01,2013-03-08 03:23:00,
2013-03-07 20:28:00,40.6,17.6,29.80,SSW,211,0.0,1.0,39,0.00,,---,0.00,VWS V14.01,2013-03-08 03:28:00,
2013-03-07 20:33:00,40.3,17.9,29.82,SSW,211,0.0,1.0,40,0.00,,---,0.00,VWS V14.01,2013-03-08 03:33:00,
2013-03-07 20:38:00,39.8,17.5,29.82,SSW,211,0.0,0.0,40,0.00,,---,0.00,VWS V14.01,2013-03-08 03:38:00,
2013-03-07 20:43:00,39.1,18.5,29.83,SSW,211,3.0,10.0,43,0.00,,---,0.00,VWS V14.01,2013-03-08 03:43:00,
2013-03-07 20:48:00,38.0,18.6,29.84,SSW,211,0.0,1.0,45,0.00,,---,0.00,VWS V14.01,2013-03-08 03:48:00,
2013-03-07 20:53:00,37.8,18.4,29.84,SSW,211,0.0,0.0,45,0.00,,---,0.00,VWS V14.01,2013-03-08 03:53:00,
2013-03-07 20:58:00,37.5,18.6,29.84,SSW,211,0.0,0.0,46,0.00,,---,0.00,VWS V14.01,2013-03-08 03:58:00,
2013-03-07 21:03:00,37.1,19.2,29.84,SSW,211,0.0,5.0,48,0.00,,---,0.00,VWS V14.01,2013-03-08 04:03:00,
2013-03-07 21:08:00,37.7,17.8,29.82,SSW,205,0.0,2.0,44,0.00,,---,0.00,VWS V14.01,2013-03-08 04:08:00,
2013-03-07 21:13:00,39.3,18.7,29.82,SSW,205,2.0,7.0,43,0.00,,---,0.00,VWS V14.01,2013-03-08 04:13:00,
2013-03-07 21:18:00,37.9,18.5,29.83,SSW,196,5.0,9.0,45,0.00,,---,0.00,VWS V14.01,2013-03-08 04:18:00,
2013-03-07 21:23:00,38.1,18.1,29.82,SSW,196,0.0,5.0,44,0.00,,---,0.00,VWS V14.01,2013-03-08 04:23:00,
2013-03-07 21:28:00,39.1,18.0,29.82,SSW,196,0.0,0.0,42,0.00,,---,0.00,VWS V14.01,2013-03-08 04:28:00,
2013-03-07 21:33:00,39.5,19.4,29.81,SSW,197,4.0,8.0,44,0.00,,---,0.00,VWS V14.01,2013-03-08 04:33:00,
2013-03-07 21:39:00,38.5,19.5,29.83,SSW,197,4.0,4.0,46,0.00,,---,0.00,VWS V14.01,2013-03-08 04:39:00,
2013-03-07 21:44:00,37.3,18.9,29.84,SSE,165,0.0,6.0,47,0.00,,---,0.00,VWS V14.01,2013-03-08 04:44:00,
2013-03-07 21:49:00,37.9,18.0,29.82,SSE,164,0.0,1.0,44,0.00,,---,0.00,VWS V14.01,2013-03-08 04:49:00,
2013-03-07 21:54:00,39.2,17.5,29.82,SSE,164,1.0,2.0,41,0.00,,---,0.00,VWS V14.01,2013-03-08 04:54:00,
2013-03-07 21:59:00,40.7,17.7,29.81,SSE,162,0.0,2.0,39,0.00,,---,0.00,VWS V14.01,2013-03-08 04:59:00,
2013-03-07 22:00:00,40.9,17.9,29.81,SSE,162,0.0,2.0,39,0.00,,---,0.00,VWS V14.01,2013-03-08 05:00:00,
2013-03-07 22:01:00,41.2,17.5,29.81,SSE,162,0.0,2.0,38,0.00,,---,0.00,VWS V14.01,2013-03-08 05:01:00,
2013-03-07 22:06:00,41.6,17.9,29.79,SSE,161,0.0,2.0,38,0.00,,---,0.00,VWS V14.01,2013-03-08 05:06:00,
2013-03-07 22:11:00,41.5,18.4,29.78,SSE,163,4.0,6.0,39,0.00,,---,0.00,VWS V14.01,2013-03-08 05:11:00,
2013-03-07 22:16:00,38.9,19.9,29.81,SSE,166,1.0,8.0,46,0.00,,---,0.00,VWS V14.01,2013-03-08 05:16:00,
2013-03-07 22:17:00,38.6,20.1,29.81,SSE,166,1.0,2.0,47,0.00,,---,0.00,VWS V14.01,2013-03-08 05:17:00,
2013-03-07 22:21:00,36.8,20.4,29.82,SSE,166,0.0,5.0,51,0.00,,---,0.00,VWS V14.01,2013-03-08 05:21:00,
2013-03-07 22:26:00,35.7,20.3,29.82,SSE,165,1.0,1.0,53,0.00,,---,0.00,VWS V14.01,2013-03-08 05:26:00,
2013-03-07 22:31:00,35.1,20.6,29.84,SSE,166,0.0,6.0,55,0.00,,---,0.00,VWS V14.01,2013-03-08 05:31:00,
2013-03-07 22:36:00,35.1,20.6,29.84,SSE,166,0.0,4.0,55,0.00,,---,0.00,VWS V14.01,2013-03-08 05:36:00,
2013-03-07 22:41:00,36.2,19.4,29.82,SSE,166,0.0,1.0,50,0.00,,---,0.00,VWS V14.01,2013-03-08 05:41:00,
2013-03-07 22:46:00,37.5,19.1,29.82,SSE,167,0.0,3.0,47,0.00,,---,0.00,VWS V14.01,2013-03-08 05:46:00,
2013-03-07 22:51:00,38.2,19.3,29.80,SSE,167,0.0,2.0,46,0.00,,---,0.00,VWS V14.01,2013-03-08 05:51:00,
2013-03-07 22:56:00,38.9,20.4,29.80,SSE,167,0.0,5.0,47,0.00,,---,0.00,VWS V14.01,2013-03-08 05:56:00,
2013-03-07 23:01:00,37.8,20.8,29.80,SSE,167,2.0,6.0,50,0.00,,---,0.00,VWS V14.01,2013-03-08 06:01:00,
2013-03-07 23:06:00,36.1,21.1,29.81,SSE,168,0.0,7.0,54,0.00,,---,0.00,VWS V14.01,2013-03-08 06:06:00,
2013-03-07 23:11:00,35.2,21.1,29.81,South,169,4.0,8.0,56,0.00,,---,0.00,VWS V14.01,2013-03-08 06:11:00,
2013-03-07 23:16:00,35.4,20.0,29.82,South,169,0.0,6.0,53,0.00,,---,0.00,VWS V14.01,2013-03-08 06:16:00,
2013-03-07 23:21:00,36.1,20.2,29.80,South,169,0.0,0.0,52,0.00,,---,0.00,VWS V14.01,2013-03-08 06:21:00,
2013-03-07 23:26:00,36.7,20.3,29.80,South,169,0.0,0.0,51,0.00,,---,0.00,VWS V14.01,2013-03-08 06:26:00,
2013-03-07 23:31:00,37.0,21.0,29.80,South,169,5.0,6.0,52,0.00,,---,0.00,VWS V14.01,2013-03-08 06:31:00,
2013-03-07 23:36:00,36.1,21.1,29.80,South,170,0.0,0.0,54,0.00,,---,0.00,VWS V14.01,2013-03-08 06:36:00,
2013-03-07 23:41:00,35.6,21.0,29.80,South,170,0.0,1.0,55,0.00,,---,0.00,VWS V14.01,2013-03-08 06:41:00,
2013-03-07 23:46:00,35.2,21.1,29.82,South,183,4.0,4.0,56,0.00,,---,0.00,VWS V14.01,2013-03-08 06:46:00,
2013-03-07 23:51:00,35.0,20.9,29.82,South,183,0.0,0.0,56,0.00,,---,0.00,VWS V14.01,2013-03-08 06:51:00,
2013-03-07 23:56:00,35.0,21.3,29.82,South,183,0.0,1.0,57,0.00,,---,0.00,VWS V14.01,2013-03-08 06:56:00,